When you browse on this site, cookies collect data to enhance your experience and personalize the content and advertising you see.
Visit our Privacy Policy to learn more. By continuing to use the site, you agree to this use of cookies and data.
  • In Österreich
  • Länderverzeichnis
  • Für 7 Tage
  • Wassertemperatur
  • Wetterkarte
  • News
  • Widgets
  • user-avatar
    Anmelden

    Stündliche Wetter Satif

    Heute, 5 Dezember, Donnerstag

    Zeit Temperatur Niederschläge Wind Luftdruck Luftfeuchtigkeit
    00:00 +5°C° 0 mm 4 m/S 668 mmHg 91%
    01:00 +4°C° 0 mm 4 m/S 668 mmHg 91%
    02:00 +4°C° 0 mm 3 m/S 668 mmHg 91%
    03:00 +4°C° 0 mm 3 m/S 668 mmHg 91%
    04:00 +4°C° 0 mm 3 m/S 669 mmHg 91%
    05:00 +5°C° 0 mm 2 m/S 669 mmHg 90%
    06:00 +4°C° 0 mm 2 m/S 669 mmHg 91%
    07:00 +6°C° 0 mm 2 m/S 670 mmHg 85%
    08:00 +7°C° 0 mm 3 m/S 671 mmHg 79%
    09:00 +9°C° 0 mm 3 m/S 672 mmHg 73%
    10:00 +10°C° 0 mm 4 m/S 672 mmHg 66%
    11:00 +10°C° 0 mm 5 m/S 673 mmHg 60%
    12:00 +12°C° 0 mm 5 m/S 673 mmHg 54%
    13:00 +12°C° 0 mm 5 m/S 673 mmHg 56%
    14:00 +10°C° 0 mm 5 m/S 673 mmHg 58%
    15:00 +11°C° 0 mm 4 m/S 672 mmHg 60%
    16:00 +10°C° 0 mm 4 m/S 673 mmHg 64%
    17:00 +9°C° 0 mm 3 m/S 673 mmHg 69%
    18:00 +8°C° 0 mm 2 m/S 673 mmHg 73%
    19:00 +8°C° 0 mm 2 m/S 673 mmHg 74%
    20:00 +9°C° 0 mm 1 m/S 673 mmHg 75%
    21:00 +8°C° 0 mm 1 m/S 673 mmHg 76%
    22:00 +8°C° 0 mm 1 m/S 674 mmHg 75%
    23:00 +8°C° 0 mm 1 m/S 674 mmHg 75%

    Morgen, 6 Dezember, Freitag

    Zeit Temperatur Niederschläge Wind Luftdruck Luftfeuchtigkeit
    00:00 +8°C° 0 mm 1 m/S 674 mmHg 74%
    01:00 +8°C° 0 mm 1 m/S 674 mmHg 74%
    02:00 +8°C° 0 mm 1 m/S 673 mmHg 74%
    03:00 +8°C° 0 mm 1 m/S 673 mmHg 73%
    04:00 +7°C° 0 mm 1 m/S 673 mmHg 75%
    05:00 +7°C° 0 mm 1 m/S 673 mmHg 76%
    06:00 +6°C° 0 mm 1 m/S 673 mmHg 78%
    07:00 +8°C° 0 mm 1 m/S 674 mmHg 72%
    08:00 +9°C° 0 mm 1 m/S 675 mmHg 65%
    09:00 +11°C° 0 mm 1 m/S 675 mmHg 59%
    10:00 +12°C° 0 mm 2 m/S 675 mmHg 54%
    11:00 +12°C° 0 mm 3 m/S 675 mmHg 49%
    12:00 +13°C° 0 mm 3 m/S 675 mmHg 45%
    13:00 +13°C° 0 mm 3 m/S 675 mmHg 45%
    14:00 +12°C° 0 mm 3 m/S 675 mmHg 45%
    15:00 +12°C° 0 mm 3 m/S 674 mmHg 46%
    16:00 +12°C° 0 mm 2 m/S 674 mmHg 52%
    17:00 +11°C° 0 mm 1 m/S 674 mmHg 59%
    18:00 +9°C° 0 mm 1 m/S 674 mmHg 65%
    19:00 +9°C° 0 mm 1 m/S 674 mmHg 66%
    20:00 +7°C° 0 mm 0 m/S 674 mmHg 67%
    21:00 +7°C° 0 mm 0 m/S 674 mmHg 68%
    22:00 +7°C° 0 mm 0 m/S 674 mmHg 67%
    23:00 +6°C° 0 mm 0 m/S 674 mmHg 66%

    übermorgen, 7 Dezember, Samstag

    Zeit Temperatur Niederschläge Wind Luftdruck Luftfeuchtigkeit
    00:00 +7°C° 0 mm 1 m/S 674 mmHg 66%
    01:00 +7°C° 0 mm 1 m/S 673 mmHg 65%
    02:00 +7°C° 0 mm 1 m/S 673 mmHg 64%
    03:00 +7°C° 0 mm 1 m/S 673 mmHg 64%
    04:00 +6°C° 0 mm 1 m/S 673 mmHg 63%
    05:00 +5°C° 0 mm 0 m/S 673 mmHg 63%
    06:00 +5°C° 0 mm 0 m/S 673 mmHg 62%
    07:00 +7°C° 0 mm 0 m/S 673 mmHg 56%
    08:00 +10°C° 0 mm 1 m/S 674 mmHg 51%
    09:00 +12°C° 0 mm 1 m/S 675 mmHg 45%
    10:00 +13°C° 0 mm 1 m/S 675 mmHg 42%
    11:00 +13°C° 0 mm 2 m/S 675 mmHg 39%
    12:00 +14°C° 0 mm 2 m/S 675 mmHg 36%
    13:00 +14°C° 0 mm 2 m/S 675 mmHg 38%
    14:00 +15°C° 0 mm 2 m/S 675 mmHg 39%
    15:00 +15°C° 0 mm 2 m/S 674 mmHg 41%
    16:00 +13°C° 0 mm 1 m/S 674 mmHg 47%
    17:00 +11°C° 0 mm 1 m/S 674 mmHg 53%
    18:00 +9°C° 0 mm 0 m/S 673 mmHg 60%
    19:00 +8°C° 0 mm 0 m/S 674 mmHg 61%
    20:00 +8°C° 0 mm 0 m/S 674 mmHg 62%
    21:00 +8°C° 0 mm 0 m/S 674 mmHg 63%
    22:00 +9°C° 0 mm 1 m/S 674 mmHg 64%
    23:00 +8°C° 0 mm 1 m/S 674 mmHg 64%

    8 Dezember, Sonntag

    Zeit Temperatur Niederschläge Wind Luftdruck Luftfeuchtigkeit
    00:00 +8°C° 0 mm 1 m/S 674 mmHg 65%
    01:00 +8°C° 0 mm 1 m/S 674 mmHg 67%
    02:00 +7°C° 0 mm 1 m/S 674 mmHg 69%
    03:00 +7°C° 0 mm 1 m/S 673 mmHg 70%
    04:00 +7°C° 0 mm 1 m/S 674 mmHg 71%
    05:00 +6°C° 0 mm 1 m/S 674 mmHg 71%
    06:00 +6°C° 0 mm 1 m/S 674 mmHg 72%
    07:00 +8°C° 0 mm 1 m/S 675 mmHg 69%
    08:00 +9°C° 0 mm 1 m/S 675 mmHg 65%
    09:00 +9°C° 0 mm 2 m/S 676 mmHg 62%
    10:00 +10°C° 0 mm 2 m/S 676 mmHg 58%
    11:00 +12°C° 0 mm 2 m/S 676 mmHg 55%
    12:00 +13°C° 0 mm 2 m/S 676 mmHg 51%
    13:00 +12°C° 0 mm 3 m/S 676 mmHg 52%
    14:00 +12°C° 0 mm 3 m/S 676 mmHg 53%
    15:00 +12°C° 0 mm 3 m/S 676 mmHg 54%
    16:00 +10°C° 0 mm 2 m/S 676 mmHg 62%
    17:00 +9°C° 0 mm 2 m/S 675 mmHg 71%
    18:00 +9°C° 0 mm 1 m/S 675 mmHg 79%
    19:00 +8°C° 0 mm 1 m/S 675 mmHg 80%
    20:00 +8°C° 0 mm 1 m/S 676 mmHg 81%
    21:00 +7°C° 0 mm 1 m/S 676 mmHg 82%
    22:00 +7°C° 0 mm 1 m/S 676 mmHg 82%
    23:00 +7°C° 0 mm 1 m/S 675 mmHg 81%

    9 Dezember, Montag

    Zeit Temperatur Niederschläge Wind Luftdruck Luftfeuchtigkeit
    00:00 +6°C° 0 mm 1 m/S 675 mmHg 81%
    01:00 +6°C° 0 mm 1 m/S 675 mmHg 82%
    02:00 +6°C° 0 mm 1 m/S 675 mmHg 83%
    03:00 +6°C° 0 mm 1 m/S 675 mmHg 83%
    04:00 +5°C° 0 mm 1 m/S 675 mmHg 84%
    05:00 +5°C° 0 mm 1 m/S 675 mmHg 85%
    06:00 +5°C° 0 mm 1 m/S 675 mmHg 86%
    07:00 +6°C° 0 mm 1 m/S 676 mmHg 80%
    08:00 +8°C° 0 mm 1 m/S 676 mmHg 73%
    09:00 +9°C° 0 mm 1 m/S 677 mmHg 67%
    10:00 +9°C° 0 mm 2 m/S 677 mmHg 64%
    11:00 +10°C° 0 mm 2 m/S 677 mmHg 61%
    12:00 +11°C° 0 mm 3 m/S 677 mmHg 57%
    13:00 +11°C° 0 mm 3 m/S 677 mmHg 58%
    14:00 +11°C° 0 mm 3 m/S 677 mmHg 59%
    15:00 +11°C° 0 mm 3 m/S 677 mmHg 59%
    16:00 +10°C° 0 mm 2 m/S 677 mmHg 66%
    17:00 +9°C° 0 mm 2 m/S 677 mmHg 72%
    18:00 +8°C° 0 mm 2 m/S 677 mmHg 79%
    19:00 +8°C° 0 mm 1 m/S 677 mmHg 81%
    20:00 +8°C° 0 mm 1 m/S 677 mmHg 83%
    21:00 +7°C° 0 mm 1 m/S 677 mmHg 86%
    22:00 +7°C° 0 mm 1 m/S 677 mmHg 86%
    23:00 +7°C° 0 mm 1 m/S 677 mmHg 86%

    10 Dezember, Dienstag

    Zeit Temperatur Niederschläge Wind Luftdruck Luftfeuchtigkeit
    00:00 +7°C° 0 mm 1 m/S 677 mmHg 86%
    01:00 +6°C° 0 mm 1 m/S 677 mmHg 87%
    02:00 +6°C° 0 mm 1 m/S 677 mmHg 88%
    03:00 +6°C° 0 mm 1 m/S 676 mmHg 89%
    04:00 +6°C° 0 mm 1 m/S 676 mmHg 90%
    05:00 +5°C° 0 mm 1 m/S 676 mmHg 91%
    06:00 +5°C° 0 mm 1 m/S 676 mmHg 92%
    07:00 +6°C° 0 mm 1 m/S 677 mmHg 87%
    08:00 +7°C° 0 mm 1 m/S 678 mmHg 81%
    09:00 +9°C° 0 mm 1 m/S 678 mmHg 76%
    10:00 +9°C° 0 mm 0 m/S 678 mmHg 69%
    11:00 +10°C° 0 mm 0 m/S 678 mmHg 61%
    12:00 +11°C° 0 mm 0 m/S 678 mmHg 54%
    13:00 +11°C° 0 mm 0 m/S 678 mmHg 52%
    14:00 +12°C° 0 mm 0 m/S 678 mmHg 50%
    15:00 +12°C° 0 mm 0 m/S 678 mmHg 49%
    16:00 +11°C° 0 mm 0 m/S 677 mmHg 55%
    17:00 +9°C° 0 mm 0 m/S 677 mmHg 62%
    18:00 +8°C° 0 mm 0 m/S 676 mmHg 68%
    19:00 +8°C° 0 mm 1 m/S 676 mmHg 68%
    20:00 +8°C° 0 mm 1 m/S 676 mmHg 67%
    21:00 +8°C° 0 mm 1 m/S 677 mmHg 67%
    22:00 +8°C° 0 mm 1 m/S 676 mmHg 65%
    23:00 +7°C° 0 mm 1 m/S 676 mmHg 64%
    Mehr zeigen